H1 CPF 2 NER 2022 3 7 9 066 01 glonass142 H2 2001801 9142 45358 2022 3 7 0 0 0 2022 3 10 23 45 0 900 1 1 0 0 0 1 H9 10 0 59645 0.00000 0 -3547942.611 10212585.946 -23084745.974 10 0 59645 900.00000 0 -6219631.296 9234853.840 -22931470.922 10 0 59645 1800.00000 0 -8911468.838 8469442.306 -22332009.485 10 0 59645 2700.00000 0 -11554059.519 7926071.644 -21298061.766 10 0 59645 3600.00000 0 -14078311.066 7601991.467 -19849788.090 10 0 59645 4500.00000 0 -16418108.490 7482238.653 -18015412.563 10 0 59645 5400.00000 0 -18512873.014 7540425.081 -15830668.990 10 0 59645 6300.00000 0 -20309899.686 7740020.837 -13338100.059 10 0 59645 7200.00000 0 -21766376.346 8036077.642 -10586223.730 10 0 59645 8100.00000 0 -22851000.259 8377318.583 -7628583.347 10 0 59645 9000.00000 0 -23545125.508 8708504.804 -4522700.332 10 0 59645 9900.00000 0 -23843394.055 8972978.129 -1328950.439 10 0 59645 10800.00000 0 -23753825.216 9115271.230 1890614.080 10 0 59645 11700.00000 0 -23297361.096 9083674.297 5073472.944 10 0 59645 12600.00000 0 -22506888.393 8832649.158 8157852.914 10 0 59645 13500.00000 0 -21425779.006 8324988.494 11083925.583 10 0 59645 14400.00000 0 -20106011.825 7533628.757 13794964.558 10 0 59645 15300.00000 0 -18605955.460 6443040.239 16238439.687 10 0 59645 16200.00000 0 -16987905.466 5050135.599 18367027.626 10 0 59645 17100.00000 0 -15315479.404 3364658.415 20139519.925 10 0 59645 18000.00000 0 -13650978.593 1409035.079 21521611.908 10 0 59645 18900.00000 0 -12052826.283 -782304.435 22486558.184 10 0 59645 19800.00000 0 -10573188.366 -3164109.525 23015683.126 10 0 59645 20700.00000 0 -9255874.932 -5681947.468 23098737.329 10 0 59645 21600.00000 0 -8134609.050 -8274230.748 22734093.834 10 0 59645 22500.00000 0 -7231733.907 -10874550.535 21928780.649 10 0 59645 23400.00000 0 -6557411.342 -13414220.949 20698348.876 10 0 59645 24300.00000 0 -6109344.516 -15824930.080 19066578.594 10 0 59645 25200.00000 0 -5873035.860 -18041389.056 17065027.396 10 0 59645 26100.00000 0 -5822569.351 -20003870.131 14732429.353 10 0 59645 27000.00000 0 -5921884.348 -21660529.021 12113954.888 10 0 59645 27900.00000 0 -6126487.660 -22969415.170 9260344.721 10 0 59645 28800.00000 0 -6385532.053 -23900086.095 6226933.742 10 0 59645 29700.00000 0 -6644173.723 -24434758.112 3072582.897 10 0 59645 30600.00000 0 -6846109.195 -24568944.838 -141460.670 10 0 59645 31500.00000 0 -6936184.137 -24311556.073 -3352753.141 10 0 59645 32400.00000 0 -6862963.136 -23684452.369 -6498869.969 10 0 59645 33300.00000 0 -6581150.741 -22721473.468 -9518624.130 10 0 59645 34200.00000 0 -6053760.109 -21466981.137 -12353262.247 10 0 59645 35100.00000 0 -5253936.024 -19973977.545 -14947614.588 10 0 59645 36000.00000 0 -4166353.579 -18301878.378 -17251175.793 10 0 59645 36900.00000 0 -2788131.792 -16514034.587 -19219094.508 10 0 59645 37800.00000 0 -1129221.897 -14675107.275 -20813052.183 10 0 59645 38700.00000 0 787747.669 -12848406.336 -22002013.536 10 0 59645 39600.00000 0 2928164.483 -11093304.934 -22762833.806 10 0 59645 40500.00000 0 5246635.783 -9462838.478 -23080710.980 10 0 59645 41400.00000 0 7688653.172 -8001588.719 -22949474.235 10 0 59645 42300.00000 0 10192649.495 -6743941.498 -22371703.057 10 0 59645 43200.00000 0 12692362.551 -5712790.634 -21358674.928 10 0 59645 44100.00000 0 15119407.341 -4918741.499 -19930142.681 10 0 59645 45000.00000 0 17405949.635 -4359846.734 -18113946.040 10 0 59645 45900.00000 0 19487369.436 -4021883.937 -15945465.041 10 0 59645 46800.00000 0 21304803.266 -3879162.288 -13466926.125 10 0 59645 47700.00000 0 22807459.126 -3895822.704 -10726574.674 10 0 59645 48600.00000 0 23954607.671 -4027575.277 -7777730.436 10 0 59645 49500.00000 0 24717166.691 -4223799.223 -4677744.568 10 0 59645 50400.00000 0 25078813.128 -4429915.391 -1486879.173 10 0 59645 51300.00000 0 25036576.852 -4589929.890 1732868.338 10 0 59645 52200.00000 0 24600892.286 -4649040.336 4918972.712 10 0 59645 53100.00000 0 23795106.786 -4556193.807 8009596.101 10 0 59645 54000.00000 0 22654467.532 -4266487.850 10944787.223 10 0 59645 54900.00000 0 21224630.461 -3743312.805 13667641.075 10 0 59645 55800.00000 0 19559754.617 -2960144.872 16125396.783 10 0 59645 56700.00000 0 17720262.351 -1901914.218 18270452.797 10 0 59645 57600.00000 0 15770359.306 -565890.404 20061280.503 10 0 59645 58500.00000 0 13775417.778 1037952.311 21463219.397 10 0 59645 59400.00000 0 11799332.196 2887105.624 22449139.506 10 0 59645 60300.00000 0 9901956.145 4947227.424 22999959.287 10 0 59645 61200.00000 0 8136726.735 7173343.385 23105009.845 10 0 59645 62100.00000 0 6548574.009 9511501.130 22762239.121 10 0 59645 63000.00000 0 5172201.157 11900809.629 21978252.479 10 0 59645 63900.00000 0 4030806.061 14275780.516 20768188.818 10 0 59645 64800.00000 0 3135296.396 16568875.580 19155434.285 10 0 59645 65700.00000 0 2484030.251 18713155.967 17171178.308 10 0 59645 66600.00000 0 2063092.644 20644923.982 14853819.612 10 0 59645 67500.00000 0 1847095.981 22306248.402 12248232.568 10 0 59645 68400.00000 0 1800470.866 23647268.465 9404906.919 10 0 59645 69300.00000 0 1879192.971 24628180.404 6378976.599 10 0 59645 70200.00000 0 2032873.298 25220823.196 3229155.646 10 0 59645 71100.00000 0 2207123.565 25409796.568 16601.369 10 0 59645 72000.00000 0 2346096.567 25193063.589 -3196273.275 10 0 59645 72900.00000 0 2395093.566 24582011.764 -6347014.826 10 0 59645 73800.00000 0 2303127.592 23600969.224 -9374347.995 10 0 59645 74700.00000 0 2025333.104 22286195.684 -12219373.369 10 0 59645 75600.00000 0 1525118.735 20684390.105 -14826720.181 10 0 59645 76500.00000 0 775970.561 18850777.466 -17145630.906 10 0 59645 77400.00000 0 -237171.877 16846855.007 -19130955.840 10 0 59645 78300.00000 0 -1517026.514 14737892.624 -20744037.739 10 0 59645 79200.00000 0 -3053605.732 12590292.483 -21953468.951 10 0 59645 80100.00000 0 -4824396.085 10468918.770 -22735706.001 10 0 59645 81000.00000 0 -6795074.516 8434509.567 -23075529.640 10 0 59645 81900.00000 0 -8920732.174 6541279.141 -22966341.469 10 0 59645 82800.00000 0 -11147555.341 4834810.839 -22410291.429 10 0 59645 83700.00000 0 -13414893.797 3350328.224 -21418233.883 10 0 59645 84600.00000 0 -15657630.541 2111416.036 -20009513.239 10 0 59645 85500.00000 0 -17808753.992 1129243.557 -18211583.489 10 0 59646 0.00000 0 -19802025.075 402321.649 -16059469.383 10 0 59646 900.00000 0 -21574628.747 -83198.151 -13595078.686 10 0 59646 1800.00000 0 -23069696.335 -352695.739 -10866382.134 10 0 59646 2700.00000 0 -24238596.742 -441763.602 -7926473.472 10 0 59646 3600.00000 0 -25042897.975 -394453.215 -4832531.094 10 0 59646 4500.00000 0 -25455918.122 -261162.687 -1644700.908 10 0 59646 5400.00000 0 -25463801.063 -96256.192 1575077.094 10 0 59646 6300.00000 0 -25066072.393 44482.969 4764275.288 10 0 59646 7200.00000 0 -24275653.007 106457.097 7860993.832 10 0 59646 8100.00000 0 -23118330.645 38805.799 10805161.171 10 0 59646 9000.00000 0 -21631712.378 -203203.609 13539696.233 10 0 59646 9900.00000 0 -19863702.688 -656048.101 16011609.845 10 0 59646 10800.00000 0 -17870571.369 -1346173.208 18173024.484 10 0 59646 11700.00000 0 -15714692.274 -2288644.389 19982093.333 10 0 59646 12600.00000 0 -13462047.261 -3486282.282 21403801.683 10 0 59646 13500.00000 0 -11179598.981 -4929318.411 22410636.243 10 0 59646 14400.00000 0 -8932641.136 -6595586.324 22983110.425 10 0 59646 15300.00000 0 -6782235.452 -8451240.885 23110136.321 10 0 59646 16200.00000 0 -4782840.684 -10451976.812 22789236.919 10 0 59646 17100.00000 0 -2980230.838 -12544696.948 22026594.745 10 0 59646 18000.00000 0 -1409787.941 -14669562.208 20836936.041 10 0 59646 18900.00000 0 -95239.120 -16762339.322 19243252.297 10 0 59646 19800.00000 0 952110.435 -18756950.112 17276363.809 10 0 59646 20700.00000 0 1733617.344 -20588117.218 14974332.756 10 0 59646 21600.00000 0 2263003.326 -22193996.986 12381736.025 10 0 59646 22500.00000 0 2565534.653 -23518690.129 9548810.715 10 0 59646 23400.00000 0 2676712.361 -24514525.402 6530487.931 10 0 59646 24300.00000 0 2640528.436 -25144020.446 3385332.740 10 0 59646 25200.00000 0 2507361.579 -25381437.067 174410.373 10 0 59646 26100.00000 0 2331601.588 -25213864.783 -3039899.454 10 0 59646 27000.00000 0 2169103.188 -24641786.116 -6195116.907 10 0 59646 27900.00000 0 2074577.687 -23679098.783 -9229881.084 10 0 59646 28800.00000 0 2099033.697 -22352592.909 -12085149.310 10 0 59646 29700.00000 0 2287376.377 -20700904.347 -14705352.603 10 0 59646 30600.00000 0 2676268.090 -18772987.391 -17039484.102 10 0 59646 31500.00000 0 3292342.296 -16626170.695 -19042098.469 10 0 59646 32400.00000 0 4150847.641 -14323877.684 -20674202.297 10 0 59646 33300.00000 0 5254780.876 -11933106.967 -21904017.807 10 0 59646 34200.00000 0 6594546.498 -9521778.347 -22707604.678 10 0 59646 35100.00000 0 8148158.660 -7156055.458 -23069327.887 10 0 59646 36000.00000 0 9881977.963 -4897756.913 -22982162.482 10 0 59646 36900.00000 0 11751953.009 -2801963.985 -22447829.443 10 0 59646 37800.00000 0 13705315.318 -914924.306 -21476760.175 10 0 59646 38700.00000 0 15682657.031 727661.516 -20087890.423 10 0 59646 39600.00000 0 17620304.549 2101899.635 -18308287.787 10 0 59646 40500.00000 0 19452888.786 3196457.629 -16172620.248 10 0 59646 41400.00000 0 21116004.314 4012783.934 -13722476.167 10 0 59646 42300.00000 0 22548845.792 4564784.484 -11005549.306 10 0 59646 43200.00000 0 23696711.063 4877971.954 -8074705.004 10 0 59646 44100.00000 0 24513265.822 4988125.225 -4986946.067 10 0 59646 45000.00000 0 24962474.830 4939517.315 -1802299.048 10 0 59646 45900.00000 0 25020118.784 4782788.210 1417356.898 10 0 59646 46800.00000 0 24674833.465 4572553.844 4609495.306 10 0 59646 47700.00000 0 23928627.996 4364853.422 7712157.876 10 0 59646 48600.00000 0 22796861.027 4214543.835 10665156.192 10 0 59646 49500.00000 0 21307676.420 4172751.847 13411236.324 10 0 59646 50400.00000 0 19500922.631 4284491.897 15897183.724 10 0 59646 51300.00000 0 17426601.417 4586550.118 18074847.486 10 0 59646 52200.00000 0 15142910.835 5105723.692 19902064.835 10 0 59646 53100.00000 0 12713964.138 5857489.503 21343468.722 10 0 59646 54000.00000 0 10207279.182 6845158.088 22371164.001 10 0 59646 54900.00000 0 7691142.015 8059548.538 22965260.090 10 0 59646 55800.00000 0 5231953.290 9479198.417 23114250.702 10 0 59646 56700.00000 0 2891666.418 11071100.681 22815234.025 10 0 59646 57600.00000 0 725422.433 12791937.836 22073969.453 10 0 59646 58500.00000 0 -1220521.575 14589763.050 20904769.783 10 0 59646 59400.00000 0 -2910485.740 16406059.457 19330230.620 10 0 59646 60300.00000 0 -4320613.218 18178093.155 17380801.487 10 0 59646 61200.00000 0 -5439617.481 19841462.887 15094206.006 10 0 59646 62100.00000 0 -6269000.720 21332740.996 12514721.286 10 0 59646 63000.00000 0 -6822734.708 22592095.857 9692329.251 10 0 59646 63900.00000 0 -7126417.798 23565786.344 6681755.464 10 0 59646 64800.00000 0 -7215943.672 24208423.655 3541413.184 10 0 59646 65700.00000 0 -7135738.051 24484905.047 332272.633 10 0 59646 66600.00000 0 -6936637.875 24371937.271 -2883322.689 10 0 59646 67500.00000 0 -6673502.917 23859084.576 -6042869.532 10 0 59646 68400.00000 0 -6402661.304 22949296.068 -9084924.271 10 0 59646 69300.00000 0 -6179297.726 21658888.849 -11950303.693 10 0 59646 70200.00000 0 -6054895.772 20016986.512 -14583243.136 10 0 59646 71100.00000 0 -6074843.722 18064435.555 -16932488.678 10 0 59646 72000.00000 0 -6276306.218 15852244.425 -18952301.349 10 0 59646 72900.00000 0 -6686453.052 13439610.133 -20603353.287 10 0 59646 73800.00000 0 -7321121.091 10891614.702 -21853497.993 10 0 59646 74700.00000 0 -8183966.934 8276687.733 -22678399.406 10 0 59646 75600.00000 0 -9266147.087 5663941.007 -23062007.494 10 0 59646 76500.00000 0 -10546540.036 3120486.309 -22996871.161 10 0 59646 77400.00000 0 -11992501.591 708848.295 -22484282.444 10 0 59646 78300.00000 0 -13561122.335 -1515420.036 -21534249.373 10 0 59646 79200.00000 0 -15200934.764 -3505820.357 -20165298.163 10 0 59646 80100.00000 0 -16853998.590 -5226604.316 -18404108.728 10 0 59646 81000.00000 0 -18458276.752 -6654011.426 -16284990.784 10 0 59646 81900.00000 0 -19950202.255 -7776999.143 -13849210.869 10 0 59646 82800.00000 0 -21267327.865 -8597436.074 -11144183.657 10 0 59646 83700.00000 0 -22350947.100 -9129752.010 -8222543.588 10 0 59646 84600.00000 0 -23148576.171 -9400061.351 -5141115.267 10 0 59646 85500.00000 0 -23616192.336 -9444798.632 -1959803.186 10 0 59647 0.00000 0 -23720134.513 -9308925.513 1259576.794 10 0 59647 900.00000 0 -23438586.286 -9043786.357 4454502.752 10 0 59647 1800.00000 0 -22762579.089 -8704704.521 7562960.437 10 0 59647 2700.00000 0 -21696473.916 -8348421.705 10524647.365 10 0 59647 3600.00000 0 -20257901.433 -8030489.375 13282139.451 10 0 59647 4500.00000 0 -18477163.458 -7802722.724 15781999.329 10 0 59647 5400.00000 0 -16396121.087 -7710824.719 17975805.040 10 0 59647 6300.00000 0 -14066615.930 -7792280.211 19821079.853 10 0 59647 7200.00000 0 -11548490.205 -8074608.525 21282106.017 10 0 59647 8100.00000 0 -8907287.686 -8574047.744 22330607.741 10 0 59647 9000.00000 0 -6211730.309 -9294725.764 22946291.228 10 0 59647 9900.00000 0 -3531074.324 -10228352.955 23117232.160 10 0 59647 10800.00000 0 -932454.393 -11354449.628 22840103.891 10 0 59647 11700.00000 0 1521675.590 -12641099.445 22120242.306 10 0 59647 12600.00000 0 3775900.193 -14046198.180 20971546.098 10 0 59647 13500.00000 0 5783902.251 -15519146.748 19416214.069 10 0 59647 14400.00000 0 7510140.474 -17002919.007 17484323.818 10 0 59647 15300.00000 0 8931076.107 -18436419.010 15213259.040 10 0 59647 16200.00000 0 10035898.366 -19757030.175 12646995.449 10 0 59647 17100.00000 0 10826718.979 -20903250.370 9835257.959 10 0 59647 18000.00000 0 11318228.025 -21817302.836 6832564.520 10 0 59647 18900.00000 0 11536825.775 -22447613.316 3697174.295 10 0 59647 19800.00000 0 11519267.263 -22751049.067 489960.045 10 0 59647 20700.00000 0 11310876.719 -22694824.580 -2726773.516 10 0 59647 21600.00000 0 10963407.511 -22257992.648 -5890502.371 10 0 59647 22500.00000 0 10532638.395 -21432456.752 -8939702.848 10 0 59647 23400.00000 0 10075808.228 -20223460.700 -11815053.881 10 0 59647 24300.00000 0 9648998.388 -18649533.467 -14460597.762 10 0 59647 25200.00000 0 9304574.479 -16741890.109 -16824836.053 10 0 59647 26100.00000 0 9088796.519 -14543312.885 -18861738.548 10 0 59647 27000.00000 0 9039699.618 -12106558.553 -20531645.109 10 0 59647 27900.00000 0 9185335.708 -9492357.868 -21802042.408 10 0 59647 28800.00000 0 9542451.460 -6767090.564 -22648200.182 10 0 59647 29700.00000 0 10115658.946 -4000232.621 -23053654.551 10 0 59647 30600.00000 0 10897134.726 -1261682.098 -23010529.022 10 0 59647 31500.00000 0 11866860.516 1380925.081 -22519687.028 10 0 59647 32400.00000 0 12993395.699 3864797.841 -21590713.187 10 0 59647 33300.00000 0 14235149.405 6134363.984 -20241723.771 10 0 59647 34200.00000 0 15542098.667 8143337.111 -18499010.243 10 0 59647 35100.00000 0 16857880.347 9856391.107 -16396522.935 10 0 59647 36000.00000 0 18122168.612 11250373.433 -13975205.076 10 0 59647 36900.00000 0 19273237.621 12315007.771 -11282190.396 10 0 59647 37800.00000 0 20250601.229 13053058.272 -8369880.219 10 0 59647 38700.00000 0 20997618.214 13479950.277 -5294918.384 10 0 59647 39600.00000 0 21463952.977 13622865.259 -2117084.472 10 0 59647 40500.00000 0 21607787.871 13519349.959 1101872.612 10 0 59647 41400.00000 0 21397693.827 13215500.039 4299437.508 10 0 59647 42300.00000 0 20814080.516 12763796.349 7413543.813 10 0 59647 43200.00000 0 19850165.129 12220686.367 10383778.110 10 0 59647 44100.00000 0 18512419.129 11644013.755 13152549.141 10 0 59647 45000.00000 0 16820474.398 11090404.994 15666199.491 10 0 59647 45900.00000 0 14806492.732 10612723.491 17876038.667 10 0 59647 46800.00000 0 12514024.919 10257698.267 19739278.223 10 0 59647 47700.00000 0 9996406.805 10063826.695 21219851.625 10 0 59647 48600.00000 0 7314758.588 10059638.982 22289104.030 10 0 59647 49500.00000 0 4535669.736 10262396.836 22926339.636 10 0 59647 50400.00000 0 1728664.710 10677280.552 23119216.897 10 0 59647 51300.00000 0 -1036446.687 11297098.495 22863984.694 10 0 59647 52200.00000 0 -3692225.894 12102531.325 22165555.272 10 0 59647 53100.00000 0 -6176160.390 13062901.202 21037412.593 10 0 59647 54000.00000 0 -8433012.228 14137434.548 19501357.536 10 0 59647 54900.00000 0 -10416864.169 15276966.463 17587094.192 10 0 59647 55800.00000 0 -12092779.429 16426016.417 15331664.351 10 0 59647 56700.00000 0 -13438006.878 17525149.243 12778740.032 10 0 59647 57600.00000 0 -14442682.054 18513523.198 9977786.591 10 0 59647 58500.00000 0 -15109995.033 19331518.569 6983111.665 10 0 59647 59400.00000 0 -15455818.428 19923336.563 3852817.539 10 0 59647 60300.00000 0 -15507811.219 20239458.784 647676.681 10 0 59647 61200.00000 0 -15304036.149 20238862.986 -2570047.846 10 0 59647 62100.00000 0 -14891149.160 19890900.764 -5737814.095 10 0 59647 63000.00000 0 -14322237.472 19176756.586 -8794021.144 10 0 59647 63900.00000 0 -13654398.045 18090425.226 -11679212.761 10 0 59647 64800.00000 0 -12946159.283 16639164.805 -14337240.723 10 0 59647 65700.00000 0 -12254855.670 14843404.735 -16716364.397 10 0 59647 66600.00000 0 -11634067.066 12736111.042 -18770264.406 10 0 59647 67500.00000 0 -11131231.681 10361634.445 -20458950.102 10 0 59647 68400.00000 0 -10785534.320 7774088.400 -21749542.784 10 0 59647 69300.00000 0 -10626159.729 5035324.278 -22616919.112 10 0 59647 70200.00000 0 -10670985.292 2212587.699 -23044202.125 10 0 59647 71100.00000 0 -10925768.637 -624046.643 -23023090.343 10 0 59647 72000.00000 0 -11383864.625 -3404354.889 -22554018.614 10 0 59647 72900.00000 0 -12026483.765 -6060647.376 -21646147.751 10 0 59647 73800.00000 0 -12823481.145 -8530344.001 -20317183.277 10 0 59647 74700.00000 0 -13734642.446 -10758334.704 -18593026.988 10 0 59647 75600.00000 0 -14711412.617 -12699027.355 -16507268.250 10 0 59647 76500.00000 0 -15698993.988 -14317998.511 -14100525.075 10 0 59647 77400.00000 0 -16638724.945 -15593179.104 -11419648.090 10 0 59647 78300.00000 0 -17470638.390 -16515526.881 -8516803.162 10 0 59647 79200.00000 0 -18136091.617 -17089158.992 -5448450.885 10 0 59647 80100.00000 0 -18580356.169 -17330940.798 -2274243.360 10 0 59647 81000.00000 0 -18755058.065 -17269550.023 944139.790 10 0 59647 81900.00000 0 -18620365.141 -16944057.330 4144193.037 10 0 59647 82800.00000 0 -18146829.114 -16402084.710 7263800.253 10 0 59647 83700.00000 0 -17316804.640 -15697620.662 10242439.808 10 0 59647 84600.00000 0 -16125385.610 -14888585.312 13022355.967 10 0 59647 85500.00000 0 -14580819.309 -14034248.762 15549673.858 10 0 59648 0.00000 0 -12704381.143 -13192611.821 17775436.669 10 0 59648 900.00000 0 -10529713.883 -12417858.829 19656546.776 10 0 59648 1800.00000 0 -8101661.254 -11757990.464 21156590.450 10 0 59648 2700.00000 0 -5474640.518 -11252733.891 22246535.201 10 0 59648 3600.00000 0 -2710623.337 -10931818.405 22905284.217 10 0 59648 4500.00000 0 123193.169 -10813687.761 23120079.294 10 0 59648 5400.00000 0 2956929.709 -10904702.684 22886745.014 10 0 59648 6300.00000 0 5720678.467 -11198866.685 22209769.800 10 0 59648 7200.00000 0 8347158.520 -11678086.637 21102222.378 10 0 59648 8100.00000 0 10774264.461 -12312957.510 19585504.909 10 0 59648 9000.00000 0 12947403.848 -13064038.937 17688946.916 10 0 59648 9900.00000 0 14821527.454 -13883570.828 15449246.949 10 0 59648 10800.00000 0 16362768.820 -14717556.869 12909771.723 10 0 59648 11700.00000 0 17549625.389 -15508129.122 10119725.136 10 0 59648 12600.00000 0 18373632.230 -16196094.843 7133202.319 10 0 59648 13500.00000 0 18839500.373 -16723558.602 4008146.194 10 0 59648 14400.00000 0 18964713.988 -17036509.102 805226.219 10 0 59648 15300.00000 0 18778603.275 -17087261.121 -2413339.053 10 0 59648 16200.00000 0 18320932.019 -16836648.511 -5584992.691 10 0 59648 17100.00000 0 17640059.498 -16255874.499 -8648059.453 10 0 59648 18000.00000 0 16790754.518 -15327939.834 -11542950.802 10 0 59648 18900.00000 0 15831754.163 -14048586.741 -14213330.720 10 0 59648 19800.00000 0 14823170.841 -12426717.201 -16607218.925 10 0 59648 20700.00000 0 13823857.741 -10484266.331 -18678009.182 10 0 59648 21600.00000 0 12888844.524 -8255534.621 -20385382.392 10 0 59648 22500.00000 0 12066952.084 -5786005.723 -21696096.233 10 0 59648 23400.00000 0 11398687.505 -3130698.244 -22584635.688 10 0 59648 24300.00000 0 10914508.305 -352119.615 -23033711.751 10 0 59648 25200.00000 0 10633529.346 2482093.197 -23034598.582 10 0 59648 26100.00000 0 10562726.883 5301748.111 -22587302.678 10 0 59648 27000.00000 0 10696673.123 8036780.599 -21700560.887 10 0 59648 27900.00000 0 11017812.153 10619933.167 -20391667.463 10 0 59648 28800.00000 0 11497265.150 12989320.313 -18686133.656 10 0 59648 29700.00000 0 12096130.373 15090772.552 -16617186.637 10 0 59648 30600.00000 0 12767222.494 16879862.390 -14225117.638 10 0 59648 31500.00000 0 13457177.189 18323528.384 -11556492.278 10 0 59648 32400.00000 0 14108831.473 19401230.526 -8663238.722 10 0 59648 33300.00000 0 14663778.596 20105589.830 -5601631.774 10 0 59648 34200.00000 0 15064988.925 20442486.729 -2431193.247 10 0 59648 35100.00000 0 15259385.589 20430615.802 786469.544 10 0 59648 36000.00000 0 15200265.613 20100517.139 3988864.015 10 0 59648 36900.00000 0 14849464.018 19493126.683 7113827.452 10 0 59648 37800.00000 0 14179169.340 18657907.981 10100733.081 10 0 59648 38700.00000 0 13173313.883 17650645.130 12891663.609 10 0 59648 39600.00000 0 11828480.081 16530990.646 15432529.422 10 0 59648 40500.00000 0 10154284.707 15359871.861 17674110.239 10 0 59648 41400.00000 0 8173224.483 14196864.916 19573000.668 10 0 59648 42300.00000 0 5919989.162 13097646.331 21092442.122 10 0 59648 43200.00000 0 3440270.063 12111628.520 22203026.047 10 0 59648 44100.00000 0 789112.758 11279877.494 22883255.836 10 0 59648 45000.00000 0 -1971118.622 10633399.143 23119957.437 10 0 59648 45900.00000 0 -4773082.294 10191864.953 22908531.489 10 0 59648 46800.00000 0 -7547009.316 9962829.753 22253042.463 10 0 59648 47700.00000 0 -10223359.355 9941473.808 21166143.200 10 0 59648 48600.00000 0 -12735473.137 10110879.799 19668835.987 10 0 59648 49500.00000 0 -15022112.940 10442833.233 17790074.132 10 0 59648 50400.00000 0 -17029786.719 10899113.039 15566210.863 10 0 59648 51300.00000 0 -18714760.137 11433218.718 13040305.158 10 0 59648 52200.00000 0 -20044673.316 11992461.975 10261296.764 10 0 59648 53100.00000 0 -20999695.106 12520335.363 7283065.457 10 0 59648 54000.00000 0 -21573166.764 12959058.424 4163391.881 10 0 59648 54900.00000 0 -21771707.879 13252193.936 962839.572 10 0 59648 55800.00000 0 -21614779.951 13347223.477 -2256420.326 10 0 59648 56700.00000 0 -21133725.697 13197972.718 -5431818.732 10 0 59648 57600.00000 0 -20370324.459 12766782.918 -8501608.840 10 0 59648 58500.00000 0 -19374924.575 12026335.455 -11406072.449 10 0 59648 59400.00000 0 -18204231.616 10961050.786 -14088688.253 10 0 59648 60300.00000 0 -16918846.070 9568001.018 -16497238.603 10 0 59648 61200.00000 0 -15580654.700 7857295.884 -18584832.435 10 0 59648 62100.00000 0 -14250186.094 5851924.190 -20310823.898 10 0 59648 63000.00000 0 -12984042.271 3587055.821 -21641608.376 10 0 59648 63900.00000 0 -11832514.962 1108832.315 -22551280.120 10 0 59648 64800.00000 0 -10837487.158 -1527304.530 -23022138.594 10 0 59648 65700.00000 0 -10030708.274 -4258677.019 -23045033.722 10 0 59648 66600.00000 0 -9432515.396 -7017743.279 -22619543.353 10 0 59648 67500.00000 0 -9051054.017 -9734677.935 -21753979.693 10 0 59648 68400.00000 0 -8882030.495 -12340054.512 -20465224.656 10 0 59648 69300.00000 0 -8909005.933 -14767518.000 -18778397.537 10 0 59648 70200.00000 0 -9104218.238 -16956336.503 -16726361.606 10 0 59648 71100.00000 0 -9429896.752 -18853725.950 -14349079.365 10 0 59648 72000.00000 0 -9840013.034 -20416851.284 -11692829.298 10 0 59648 72900.00000 0 -10282392.892 -21614421.247 -8809299.627 10 0 59648 73800.00000 0 -10701099.498 -22427810.975 -5754577.072 10 0 59648 74700.00000 0 -11038986.015 -22851666.450 -2588050.823 10 0 59648 75600.00000 0 -11240309.059 -22893966.803 628746.433 10 0 59648 76500.00000 0 -11253291.861 -22575543.280 3833337.415 10 0 59648 77400.00000 0 -11032528.350 -21929076.486 6963515.184 10 0 59648 78300.00000 0 -10541126.224 -20997615.466 9958550.214 10 0 59648 79200.00000 0 -9752498.354 -19832682.051 12760366.029 10 0 59648 80100.00000 0 -8651726.817 -18492041.063 15314660.607 10 0 59648 81000.00000 0 -7236442.004 -17037230.635 17571952.236 10 0 59648 81900.00000 0 -5517179.522 -15530956.450 19488530.189 10 0 59648 82800.00000 0 -3517199.587 -14034459.017 21027292.596 10 0 59648 83700.00000 0 -1271775.747 -12604963.712 22158456.309 10 0 59648 84600.00000 0 1173018.291 -11293319.434 22860126.050 10 0 59648 85500.00000 0 3761974.234 -10141923.688 23118712.680 99